Stündliche Wetter Bolshie Golubochki

Heute, 11 April, Sonntag

Zeit Temperatur Niederschläge Wind Luftdruck Luftfeuchtigkeit
00:00 +3°C° 0 mm 2 m/S 756 mmHg 65%
01:00 +3°C° 0 mm 2 m/S 756 mmHg 66%
02:00 +3°C° 0 mm 2 m/S 756 mmHg 68%
03:00 +2°C° 0 mm 2 m/S 756 mmHg 69%
04:00 +2°C° 0 mm 2 m/S 757 mmHg 71%
05:00 +3°C° 0 mm 1 m/S 757 mmHg 72%
06:00 +5°C° 0 mm 1 m/S 757 mmHg 67%
07:00 +7°C° 0 mm 1 m/S 758 mmHg 61%
08:00 +8°C° 0 mm 1 m/S 758 mmHg 56%
09:00 +10°C° 0 mm 1 m/S 758 mmHg 52%
10:00 +11°C° 0 mm 1 m/S 758 mmHg 47%
11:00 +13°C° 0 mm 1 m/S 758 mmHg 43%
12:00 +14°C° 0 mm 1 m/S 758 mmHg 41%
13:00 +14°C° 0 mm 1 m/S 758 mmHg 40%
14:00 +15°C° 0 mm 1 m/S 758 mmHg 38%
15:00 +14°C° 0 mm 1 m/S 758 mmHg 41%
16:00 +14°C° 0 mm 2 m/S 758 mmHg 44%
17:00 +14°C° 0 mm 2 m/S 758 mmHg 47%
18:00 +12°C° 0 mm 2 m/S 758 mmHg 51%
19:00 +10°C° 0 mm 2 m/S 759 mmHg 56%
20:00 +8°C° 0 mm 2 m/S 759 mmHg 60%
21:00 +8°C° 0 mm 2 m/S 759 mmHg 63%
22:00 +7°C° 0 mm 3 m/S 759 mmHg 65%
23:00 +5°C° 0 mm 3 m/S 759 mmHg 68%

Morgen, 12 April, Montag

Zeit Temperatur Niederschläge Wind Luftdruck Luftfeuchtigkeit
00:00 +5°C° 0 mm 3 m/S 759 mmHg 69%
01:00 +5°C° 0 mm 3 m/S 759 mmHg 71%
02:00 +4°C° 0 mm 3 m/S 759 mmHg 72%
03:00 +4°C° 0 mm 3 m/S 759 mmHg 72%
04:00 +3°C° 0 mm 4 m/S 759 mmHg 71%
05:00 +3°C° 0 mm 4 m/S 758 mmHg 70%
06:00 +3°C° 0 mm 5 m/S 758 mmHg 66%
07:00 +5°C° 0 mm 5 m/S 758 mmHg 61%
08:00 +5°C° 0 mm 6 m/S 758 mmHg 56%
09:00 +7°C° 0 mm 6 m/S 758 mmHg 60%
10:00 +9°C° 0 mm 5 m/S 757 mmHg 63%
11:00 +10°C° 0 mm 5 m/S 757 mmHg 67%
12:00 +12°C° 0 mm 5 m/S 757 mmHg 66%
13:00 +13°C° 0 mm 5 m/S 756 mmHg 66%
14:00 +14°C° 0 mm 4 m/S 756 mmHg 65%
15:00 +14°C° 0 mm 4 m/S 756 mmHg 67%
16:00 +14°C° 0 mm 4 m/S 755 mmHg 69%
17:00 +14°C° 0 mm 4 m/S 755 mmHg 71%
18:00 +13°C° 0 mm 4 m/S 755 mmHg 77%
19:00 +11°C° 0 mm 3 m/S 755 mmHg 83%
20:00 +10°C° 0 mm 3 m/S 755 mmHg 89%
21:00 +10°C° 0 mm 3 m/S 755 mmHg 89%
22:00 +9°C° 0 mm 3 m/S 754 mmHg 89%
23:00 +9°C° 0 mm 3 m/S 754 mmHg 88%

übermorgen, 13 April, Dienstag

Zeit Temperatur Niederschläge Wind Luftdruck Luftfeuchtigkeit
00:00 +9°C° 0 mm 3 m/S 754 mmHg 86%
01:00 +9°C° 0 mm 3 m/S 754 mmHg 84%
02:00 +9°C° 0 mm 3 m/S 754 mmHg 82%
03:00 +9°C° 0 mm 3 m/S 754 mmHg 82%
04:00 +9°C° 0 mm 3 m/S 754 mmHg 83%
05:00 +9°C° 0 mm 3 m/S 754 mmHg 83%
06:00 +10°C° 0 mm 3 m/S 754 mmHg 78%
07:00 +11°C° 0 mm 3 m/S 754 mmHg 73%
08:00 +13°C° 0 mm 4 m/S 754 mmHg 68%
09:00 +14°C° 0 mm 4 m/S 754 mmHg 62%
10:00 +16°C° 0 mm 5 m/S 754 mmHg 55%
11:00 +19°C° 0 mm 5 m/S 754 mmHg 49%
12:00 +20°C° 0 mm 5 m/S 754 mmHg 46%
13:00 +20°C° 0 mm 5 m/S 753 mmHg 44%
14:00 +20°C° 0 mm 5 m/S 753 mmHg 41%
15:00 +20°C° 0 mm 5 m/S 753 mmHg 44%
16:00 +19°C° 0 mm 4 m/S 753 mmHg 47%
17:00 +19°C° 0 mm 3 m/S 753 mmHg 50%
18:00 +17°C° 0 mm 3 m/S 753 mmHg 55%
19:00 +16°C° 0 mm 3 m/S 753 mmHg 59%
20:00 +13°C° 0 mm 3 m/S 753 mmHg 64%
21:00 +13°C° 0 mm 4 m/S 752 mmHg 64%
22:00 +12°C° 0 mm 4 m/S 752 mmHg 65%
23:00 +11°C° 0 mm 4 m/S 752 mmHg 65%

14 April, Mittwoch

Zeit Temperatur Niederschläge Wind Luftdruck Luftfeuchtigkeit
00:00 +11°C° 0 mm 4 m/S 752 mmHg 68%
01:00 +10°C° 0 mm 3 m/S 752 mmHg 71%
02:00 +10°C° 0 mm 3 m/S 752 mmHg 74%
03:00 +9°C° 0 mm 3 m/S 752 mmHg 75%
04:00 +9°C° 0 mm 3 m/S 752 mmHg 76%
05:00 +9°C° 0 mm 3 m/S 752 mmHg 77%
06:00 +10°C° 0 mm 4 m/S 752 mmHg 71%
07:00 +12°C° 0 mm 4 m/S 752 mmHg 66%
08:00 +13°C° 0 mm 4 m/S 752 mmHg 60%
09:00 +15°C° 0 mm 5 m/S 751 mmHg 55%
10:00 +16°C° 0 mm 5 m/S 751 mmHg 51%
11:00 +17°C° 0 mm 5 m/S 751 mmHg 47%
12:00 +19°C° 0 mm 5 m/S 750 mmHg 42%
13:00 +20°C° 0 mm 5 m/S 750 mmHg 37%
14:00 +20°C° 0 mm 5 m/S 750 mmHg 31%
15:00 +20°C° 0 mm 5 m/S 750 mmHg 35%
16:00 +19°C° 0 mm 4 m/S 749 mmHg 38%
17:00 +18°C° 0 mm 3 m/S 749 mmHg 41%
18:00 +16°C° 0 mm 3 m/S 749 mmHg 44%
19:00 +14°C° 0 mm 3 m/S 749 mmHg 48%
20:00 +13°C° 0 mm 3 m/S 749 mmHg 51%
21:00 +13°C° 0 mm 2 m/S 749 mmHg 52%
22:00 +13°C° 0 mm 2 m/S 749 mmHg 54%
23:00 +12°C° 0 mm 2 m/S 749 mmHg 55%

15 April, Donnerstag

Zeit Temperatur Niederschläge Wind Luftdruck Luftfeuchtigkeit
00:00 +12°C° 0 mm 2 m/S 749 mmHg 57%
01:00 +12°C° 0 mm 2 m/S 748 mmHg 59%
02:00 +12°C° 0 mm 2 m/S 748 mmHg 61%
03:00 +10°C° 0 mm 2 m/S 748 mmHg 61%
04:00 +10°C° 0 mm 2 m/S 748 mmHg 62%
05:00 +10°C° 0 mm 3 m/S 748 mmHg 63%
06:00 +12°C° 0 mm 2 m/S 748 mmHg 61%
07:00 +13°C° 0 mm 2 m/S 748 mmHg 59%
08:00 +14°C° 0 mm 2 m/S 748 mmHg 58%
09:00 +15°C° 0 mm 2 m/S 748 mmHg 55%
10:00 +16°C° 0 mm 2 m/S 748 mmHg 52%
11:00 +17°C° 0 mm 2 m/S 748 mmHg 49%
12:00 +18°C° 0 mm 2 m/S 748 mmHg 48%
13:00 +18°C° 0 mm 2 m/S 747 mmHg 47%
14:00 +19°C° 0 mm 3 m/S 747 mmHg 46%
15:00 +18°C° 0 mm 2 m/S 747 mmHg 48%
16:00 +18°C° 0 mm 2 m/S 747 mmHg 51%
17:00 +18°C° 0 mm 2 m/S 747 mmHg 53%
18:00 +16°C° 0 mm 2 m/S 747 mmHg 58%
19:00 +14°C° 0 mm 3 m/S 747 mmHg 62%
20:00 +13°C° 0 mm 3 m/S 747 mmHg 67%
21:00 +12°C° 0 mm 3 m/S 747 mmHg 69%
22:00 +12°C° 0 mm 4 m/S 747 mmHg 71%
23:00 +11°C° 0 mm 4 m/S 747 mmHg 73%

16 April, Freitag

Zeit Temperatur Niederschläge Wind Luftdruck Luftfeuchtigkeit
00:00 +9°C° 0 mm 5 m/S 747 mmHg 77%
01:00 +9°C° 0 mm 6 m/S 748 mmHg 81%
02:00 +7°C° 0 mm 8 m/S 748 mmHg 85%
03:00 +6°C° 0 mm 8 m/S 748 mmHg 85%
04:00 +5°C° 0 mm 8 m/S 748 mmHg 84%
05:00 +4°C° 0 mm 8 m/S 749 mmHg 84%
06:00 +5°C° 0 mm 8 m/S 749 mmHg 82%
07:00 +5°C° 0 mm 9 m/S 750 mmHg 79%
08:00 +5°C° 0 mm 9 m/S 750 mmHg 77%
09:00 +5°C° 0 mm 9 m/S 750 mmHg 73%
10:00 +6°C° 0 mm 10 m/S 751 mmHg 68%
11:00 +6°C° 0 mm 10 m/S 751 mmHg 63%
12:00 +7°C° 0 mm 10 m/S 751 mmHg 60%
13:00 +7°C° 0 mm 9 m/S 751 mmHg 57%
14:00 +7°C° 0 mm 9 m/S 752 mmHg 55%
15:00 +7°C° 0 mm 9 m/S 752 mmHg 52%
16:00 +7°C° 0 mm 8 m/S 752 mmHg 49%
17:00 +7°C° 0 mm 8 m/S 753 mmHg 46%
18:00 +6°C° 0 mm 8 m/S 753 mmHg 47%
19:00 +5°C° 0 mm 8 m/S 754 mmHg 48%
20:00 +5°C° 0 mm 8 m/S 754 mmHg 48%
21:00 +4°C° 0 mm 8 m/S 755 mmHg 49%
22:00 +3°C° 0 mm 7 m/S 755 mmHg 51%
23:00 +2°C° 0 mm 7 m/S 756 mmHg 52%
Mehr zeigen

Wir brauchen deine Erlaubnis

Meteoprog und unser Service Anbieter werden persönliche Daten aufbewahren, so wie Cookies, Geräte Bezeichnung oder ähnliche Technologien von deinem Gerät und Prozess, so wie Persönliche Daten Inhalte und Werbungen, genauso wie social Media und den Verkehr zu analysieren.

  • Aufbewahrung und/oder Zugang zu deiner Geräte Informationen.

    Cookies, Geräte Bezeichnung oder andere Informationen, können aufbewahrt oder Zugang zu deinem Gerät erhalten, für den Grund, der oben angegeben wird.

  • Personalisierte Werbung und Inhalte, Messungen, Einblick in das Publikum und Produkt Entwicklung.

    Werbungen und Inhalte können personalisiert werden, basierend auf ein Profil. Mehr Daten können besser personalisierte Werbungen und Inhalte hinzufügen. Werbung und Inhalte können gezeigt und gemessen werden. Einblicke über das Publikum, welche die Werbung gesehen haben und den Inhalt, können abgeleitet werden. So wie Daten können genutzt werden, um es zu verbessern oder die Benutzer Erfahrung zu verbessern das System und die Software.

Wenn du “Ich stimme zu” klickst, erlaubst du uns, die Cookies zu benutzen die Geräte Bezeichnung, den Web oder ähnliche Technologien zu benutzen. Deine Settings, können in deinem Gerät bei deinem Browser geändert werden.

Für den bestimmten Zweck, berechtigten Interessen beruhen darauf, mehr als auf den Inhalt. Du kannst mehr darüber in unseren Privaten und Cookie Politik lesen.